Tracking 29892 objects as of 21-Nov-2024
HD Live streaming from Space Station
objects crossing your sky now

COSMOS 1275 DEB

Track COSMOS 1275 DEB now!
10-day predictions


NORAD ID: 39957
Int'l Code: 1981-053NZ
Perigee: 961.9 km
Apogee: 1,018.9 km
Inclination: 82.9 °
Period: 104.8 minutes
Semi major axis: 7361 km
RCS: 0.0064 m2 (small)
Launch date: April 25, 1981
Source: Commonwealth of Independent States (former USSR) (CIS)
Launch site: PLESETSK MISSILE AND SPACE COMPLEX (PKMTR)

Note: This is SATELLITE DEBRIS
Your satellite tracking list
Your tracking list is empty




NASA's NSSDC Master Catalog

Two Line Element Set (TLE):
1 39957U 81053NT  24323.65157301  .00000154  00000-0  14578-3 0  9990
2 39957  82.9234 282.4364 0038726 113.8200  60.8157 13.74555300524576
Source of the keplerian elements: AFSPC